Home   Weather   Prince Rupert   Past weeks

Flag for Canada Past Weather in Prince Rupert, British Columbia, Canada — Yesterday and Last 2 Weeks

Now
45 °F

Overcast.


Feels Like: 41 °F
Forecast: 35 / 41 °F
Wind: 6 mph from South

Location: Prince Rupert

Current Time: Dec 2, 2016 at 8:55:58 pm

Latest Report: Dec 2, 2016 at 8:00 pm


Visibility: 9 mi

Pressure: 29.76 "Hg

Humidity: 81%

Dew Point: 39 °F

Location of Prince RupertLocation

Past Weather in Prince Rupert — Graph

°F

Prince Rupert Temperature Yesterday

Maximum temperature yesterday: 45 °F (at 7:55 pm)
Minimum temperature yesterday: 39 °F (at 7:00 am)
Average temperature yesterday: 42 °F

High & Low Weather Summary for the Past Weeks

 TemperatureHumidityPressure
High50 °F (Nov 29, 4:00 pm)100% (Nov 17, 8:00 pm)30.09 "Hg (Nov 17, 8:00 pm)
Low30 °F (Nov 21, 12:00 am)53% (Nov 21, 3:00 pm)29.23 "Hg (Nov 27, 9:52 am)
Average41 °F86%29.65 "Hg
* Reported Nov 17 7:00 pm — Dec 2 7:00 pm, Prince Rupert, Weather by CustomWeather, © 2016

Note: Actual official high and low records may vary slightly from our data, if they occured in-between our weather recording intervals... More about our weather records

Advertising

Prince Rupert Weather History for the Previous 24 Hours

Scroll right to see more
 ConditionsComfort  
Time TempWeatherWind HumidityBarometerVisibility
7:00 pm
Fri, Dec 2
46 °FPartly cloudy.12 mph71%29.75 "Hg9 mi
6:00 pm45 °FOvercast.10 mph81%29.73 "Hg9 mi
5:00 pm46 °FOvercast.13 mph76%29.70 "Hg9 mi
4:00 pm46 °FCloudy.13 mph76%29.68 "Hg9 mi
3:00 pm45 °FLight rain. Cloudy.10 mph87%29.66 "Hg9 mi
2:00 pm43 °FRain. Fog.18 mph93%29.64 "Hg4 mi
1:03 pm46 °FLight rain. Cloudy.10 mph82%29.62 "Hg9 mi
12:00 pm46 °FLight rain. Cloudy.15 mph82%29.60 "Hg9 mi
11:00 am46 °FLight rain. Mostly cloudy.12 mph82%29.58 "Hg9 mi
10:00 am46 °FMore clouds than sun.10 mph82%29.57 "Hg9 mi
9:00 am46 °FLight rain. Cloudy.12 mph82%29.54 "Hg9 mi
8:49 am48 °FLight rain. Cloudy.16 mph76%29.54 "Hg9 mi
8:00 am48 °FOvercast.13 mph71%29.52 "Hg9 mi
7:49 am48 °FMostly cloudy.13 mph76%29.52 "Hg9 mi
7:00 am48 °FMostly cloudy.10 mph76%29.51 "Hg9 mi
6:00 am48 °FMostly cloudy.13 mph82%29.49 "Hg8 mi
5:00 am48 °FPassing clouds.9 mph82%29.47 "Hg9 mi
4:00 am43 °FLight rain. Overcast.22 mph100%29.46 "Hg9 mi
3:02 am45 °FLight rain. Fog.25 mph87%29.44 "Hg6 mi
2:00 am43 °FLight rain. Mostly cloudy.30 mph87%29.44 "Hg9 mi
1:00 am43 °FLight rain. Mostly cloudy.35 mph87%29.46 "Hg9 mi
12:00 am43 °FLight rain. Fog.31 mph87%29.54 "Hg5 mi
11:54 pm
Thu, Dec 1
43 °FLight rain. Fog.33 mph87%29.56 "Hg5 mi
11:00 pm45 °FLight rain. Mostly cloudy.23 mph81%29.62 "Hg9 mi
10:00 pm43 °FLight rain. Mostly cloudy.25 mph87%29.64 "Hg9 mi
9:52 pm45 °FLight rain. Overcast.32 mph81%29.66 "Hg9 mi
9:00 pm43 °FLight rain. Mostly cloudy.21 mph81%29.72 "Hg9 mi
8:49 pm45 °FLight rain. Overcast.21 mph76%29.75 "Hg9 mi
8:04 pm45 °FLight rain. Overcast.20 mph76%29.76 "Hg9 mi
Weather by CustomWeather, © 2016

See weather overviewHow to use our weather pages